DW8097 Weather Reports


time (UTC)temp
F
wind
direction
speed
knots
gust
knots
rain 1hr
in
rain 24hr
in
rain mn
in
humidity
%
barometer
mb
20260506204535 45 261 2.6 10.4 0.00 0.00 0.00 45 1015.4
20260506203005 45 325 4.3 13.0 0.00 0.00 0.00 45 1015.4
20260506201504 45 273 5.2 11.3 0.00 0.00 0.00 45 1015.5
20260506200034 44 332 5.2 10.4 0.00 0.00 0.00 45 1015.5
20260506194531 44 270 3.5 11.3 0.00 0.00 0.00 45 1015.5
20260506193029 44 33 6.1 13.9 0.00 0.00 0.00 45 1015.5
20260506191534 44 334 4.3 10.4 0.00 0.00 0.00 45 1015.6
20260506190028 44 311 4.3 13.9 0.00 0.00 0.00 46 1015.6
20260506184531 43 317 4.3 9.6 0.00 0.00 0.00 46 1015.6
20260506183031 43 319 6.1 10.4 0.00 0.00 0.00 46 1015.6
20260506183027 43 313 6.1 10.4 0.00 0.00 0.00 46 1015.6
20260506181524 43 319 4.3 11.3 0.00 0.00 0.00 47 1015.6
20260506180026 43 311 7.0 13.0 0.00 0.00 0.00 45 1015.6
20260506174521 43 297 6.1 10.4 0.00 0.00 0.00 45 1015.7
20260506173018 43 279 6.1 12.2 0.00 0.00 0.00 44 1015.7
20260506171513 44 355 8.7 13.0 0.00 0.00 0.00 43 1015.6
20260506170015 44 289 4.3 12.2 0.00 0.00 0.00 44 1015.6
20260506164508 45 302 4.3 8.7 0.00 0.00 0.00 44 1015.6
20260506163008 44 315 4.3 13.0 0.00 0.00 0.00 44 1015.6
20260506161607 44 287 5.2 12.2 0.00 0.00 0.00 45 1015.5
20260506160055 43 340 5.2 10.4 0.00 0.00 0.00 46 1015.5
20260506154612 43 340 3.5 9.6 0.00 0.00 0.00 47 1015.4
20260506153055 43 334 5.2 10.4 0.00 0.00 0.00 47 1015.3
20260506151532 43 355 2.6 9.6 0.00 0.00 0.00 49 1015.3
20260506150023 43 343 4.3 13.0 0.00 0.00 0.00 48 1015.4
20260506144522 44 355 5.2 13.0 0.00 0.00 0.00 47 1015.5
20260506143020 43 360 5.2 10.4 0.00 0.00 0.00 48 1015.4
20260506141520 43 310 4.3 10.4 0.00 0.00 0.00 50 1015.4
20260506140022 42 21 3.5 7.0 0.00 0.00 0.00 52 1015.4
20260506134513 40 318 2.6 5.2 0.00 0.00 0.00 55 1015.3
20260506133009 41 336 1.7 5.2 0.00 0.00 0.00 56 1015.2
20260506131515 41 313 0.9 3.5 0.00 0.00 0.00 57 1015.2
20260506130008 41 276 0.0 2.6 0.00 0.00 0.00 59 1015.2
20260506124502 40 32 0.0 2.6 0.00 0.00 0.00 61 1014.8
20260506123004 40 167 0.0 2.6 0.00 0.00 0.00 62 1014.7
20260506121559 39 360 0.0 1.7 0.00 0.00 0.00 64 1014.9
20260506120053 35 324 1.7 3.5 0.00 0.00 0.00 67 1014.4
20260506114557 33 355 0.9 2.6 0.00 0.00 0.00 69 1014.3
20260506113052 37 281 0.0 0.9 0.00 0.00 0.00 65 1014.1
20260506111551 34 281 0.0 0.0 0.00 0.00 0.00 70 1014.3
20260506110046 35 281 0.0 0.9 0.00 0.00 0.00 71 1014.2
20260506104545 35 281 0.0 0.9 0.00 0.00 0.00 68 1014.0
20260506103037 36 281 0.0 0.9 0.00 0.00 0.00 67 1013.8
20260506101543 35 281 0.0 1.7 0.00 0.00 0.00 67 1013.6
20260506100033 36 281 0.0 0.0 0.00 0.00 0.00 67 1013.5
20260506094557 36 288 0.0 0.9 0.00 0.00 0.00 65 1013.5
20260506093055 37 324 0.0 2.6 0.00 0.00 0.00 58 1013.5
20260506091522 37 322 0.0 3.5 0.00 0.00 0.00 60 1013.5
20260506090022 37 348 0.9 1.7 0.00 0.00 0.00 60 1013.4
20260506084527 36 355 1.7 3.5 0.00 0.00 0.00 61 1013.4
20260506083014 37 327 2.6 5.2 0.00 0.00 0.00 60 1013.5
20260506081510 37 16 1.7 4.3 0.00 0.00 0.00 61 1013.2
20260506073028 38 14 3.5 6.1 0.00 0.00 0.00 61 1012.9
20260506071521 38 332 2.6 6.1 0.00 0.00 0.00 61 1012.7
20260506061606 40 331 2.6 5.2 0.00 0.00 0.00 56 1012.2
20260506044531 42 349 2.6 7.0 0.00 0.00 0.00 52 1011.7
20260506043027 43 351 4.3 7.8 0.00 0.00 0.00 51 1011.7
20260506041523 43 317 4.3 7.0 0.00 0.00 0.00 51 1011.4
20260506040029 44 360 4.3 8.7 0.00 0.00 0.00 49 1011.3
20260506034510 45 5 3.5 10.4 0.00 0.00 0.00 47 1011.2
20260506033003 45 360 3.5 7.8 0.00 0.00 0.00 45 1011.0
20260506031558 46 323 1.7 5.2 0.00 0.00 0.00 44 1011.0
20260506030049 46 314 1.7 4.3 0.00 0.00 0.00 43 1011.0
20260506024548 47 324 1.7 3.5 0.00 0.00 0.00 43 1010.8
20260506023054 48 335 1.7 4.3 0.00 0.00 0.00 41 1010.5
20260506021547 48 283 0.9 4.3 0.00 0.00 0.00 42 1010.3
20260506020040 48 309 1.7 4.3 0.00 0.00 0.00 41 1010.2
20260506014539 48 330 1.7 4.3 0.00 0.00 0.00 40 1010.0
20260506013034 48 292 4.3 7.0 0.00 0.00 0.00 39 1009.8
20260506011535 49 326 5.2 8.7 0.00 0.00 0.00 40 1009.7
20260506010045 49 360 3.5 7.8 0.00 0.00 0.00 40 1009.7
20260506004634 49 346 5.2 9.6 0.00 0.00 0.00 39 1009.5
20260506003030 49 327 2.6 8.7 0.00 0.00 0.00 39 1009.4
20260506001529 50 348 4.3 9.6 0.00 0.00 0.00 38 1009.3
20260506000010 50 355 5.2 8.7 0.00 0.00 0.00 37 1009.2
20260505234521 50 295 4.3 11.3 0.00 0.00 0.00 37 1009.1
20260505233007 50 313 6.1 11.3 0.00 0.00 0.00 36 1009.2
20260505231503 51 321 6.1 10.4 0.00 0.00 0.00 36 1009.0
20260505230008 51 306 4.3 9.6 0.00 0.00 0.00 35 1009.2
20260505224503 51 355 7.0 11.3 0.00 0.00 0.00 36 1009.3
20260505223059 51 273 5.2 9.6 0.00 0.00 0.00 37 1009.2
20260505221559 51 266 5.2 13.9 0.00 0.00 0.00 37 1009.1
20260505220057 51 336 7.8 13.9 0.00 0.00 0.00 35 1009.2
20260505214623 52 265 5.2 11.3 0.00 0.00 0.00 35 1009.1
20260505213024 51 296 3.5 13.0 0.00 0.00 0.00 36 1009.2
20260505211522 51 272 5.2 12.2 0.00 0.00 0.00 34 1009.3
20260505210020 51 300 6.1 13.0 0.00 0.00 0.00 33 1009.3